This is the latest recevied weather packets stored in our database for station/object W6MAF. If no packets are shown the sender has not sent any weather packets the latest 10 day(s).
| Time | Temp. | Humidity | Pressure | Rain* | Wind** | Luminosity | Snow |
|---|---|---|---|---|---|---|---|
| 1777953232 | 7.78° C | 74% | - | 0 mm | 4.47 m/s, 193° | - | - |
| 1777952935 | 7.78° C | 75% | - | 0 mm | 6.26 m/s, 187° | - | - |
| 1777952637 | 7.78° C | 76% | - | 0 mm | 6.71 m/s, 195° | - | - |
| 1777952339 | 7.78° C | 76% | - | 0 mm | 5.36 m/s, 191° | - | - |
| 1777952038 | 7.78° C | 77% | - | 0 mm | 6.26 m/s, 184° | - | - |
| 1777951741 | 7.78° C | 77% | - | 0 mm | 5.36 m/s, 198° | - | - |
| 1777951443 | 7.78° C | 78% | - | 0 mm | 5.81 m/s, 187° | - | - |
| 1777951145 | 7.78° C | 79% | - | 0 mm | 6.71 m/s, 169° | - | - |
| 1777950848 | 7.78° C | 78% | - | 0 mm | 6.26 m/s, 186° | - | - |
| 1777950550 | 8.33° C | 78% | - | 0 mm | 6.71 m/s, 177° | - | - |
| 1777950249 | 8.33° C | 77% | - | 0 mm | 7.15 m/s, 187° | - | - |
| 1777949952 | 8.33° C | 76% | - | 0 mm | 5.81 m/s, 172° | - | - |
| 1777949654 | 8.33° C | 77% | - | 0 mm | 5.81 m/s, 188° | - | - |
| 1777949357 | 8.33° C | 78% | - | 0 mm | 6.26 m/s, 183° | - | - |
| 1777949059 | 8.33° C | 78% | - | 0 mm | 7.15 m/s, 191° | - | - |
| 1777948761 | 8.33° C | 77% | - | 0 mm | 7.6 m/s, 158° | - | - |
| 1777948462 | 8.33° C | 76% | - | 0 mm | 9.39 m/s, 188° | - | - |
| 1777948162 | 8.33° C | 75% | - | 0 mm | 9.83 m/s, 186° | - | - |
| 1777947865 | 8.89° C | 73% | - | 0 mm | 7.6 m/s, 167° | - | - |
| 1777947567 | 8.89° C | 71% | - | 0 mm | 7.6 m/s, 191° | - | - |
| 1777947269 | 8.89° C | 70% | - | 0 mm | 8.94 m/s, 193° | - | - |
| 1777946972 | 9.44° C | 67% | - | 0 mm | 6.71 m/s, 187° | - | - |
| 1777946671 | 9.44° C | 65% | - | 0 mm | 8.05 m/s, 194° | - | - |
| 1777946373 | 9.44° C | 64% | - | 0 mm | 7.6 m/s, 183° | - | - |
| 1777946076 | 10° C | 62% | - | 0 mm | 7.15 m/s, 186° | - | - |
* Rain latest hour (hover to see other rain measurements)
** Current wind speed in m/s (hover to see current wind gust speed)